sat.trackr.live / text

‹ back to catalog

STARLINK-34217

NORAD 64488 · 2025-133S

PAYLOAD ACTIVE UNKNOWN

§ Identity

Operator
Country
US
Launch date
2025-06-23
Launch site
AFETR
Launch vehicle
Mass (kg)
RCS (m²)

Purposes: comms

External: N2YO · Heavens-Above · Gunter

§ Orbital elements

Epoch: 2026-09-20T09:10:23.524608Z

Period
93.85 min
Inclination
53.1585°
Eccentricity
0.0001775
Mean motion
15.34407177 rev/d
Perigee alt
461.5 km
Apogee alt
463.9 km
Semi-major
6,840.8 km
B*
6.5126e-4
RAAN
290.5623°
Arg perigee
78.5075°
Mean anomaly
281.6127°
Rev number
7,091

§ Raw data

STARLINK-342171 64488U 25133S   26263.38221672  .00021696  00000+0  65126-3 0  99902 64488  53.1585 290.5623 0001775  78.5075 281.6127 15.34407177 70911

JSON: /api/v1/satellites/64488 · /tle

For live sub-satellite position, see the globe view (requires WebGL).

§ Visibility from observer

Set your observer location to see the next 7 days of passes ≥ 10°. The values pass through the URL so the page stays shareable.

No JS? Fill the form by hand. The geolocation button needs JavaScript.